Location: Boissi�res
(45.2500°N, 2.3667°E)
Time: 00:57:38
(UTC+00:00)

Cosmos 2333 Rocket - Pass Details

Date: 03 March 2021
Orbit: 837 x 864 km, 70.8° (Epoch: 20 April)

Event Time Altitude Azimuth Distance (km) Brightness Sun altitude
Rises 18:46:29 0° 171° (S) 3,384 5.2 -12.4°
Reaches altitude 10° 18:49:12 10° 160° (SSE) 2,457 4.4 -12.9°
Maximum altitude 18:53:56 28° 103° (ESE) 1,539 3.0 -13.7°
Drops below altitude 10° 18:58:41 10° 46° (NE) 2,487 4.3 -14.5°
Sets 19:01:27 0° 36° (NE) 3,433 5.1 -15.0°
